Weather History for Rolla, ND

Change the Weather History Date:

Tuesday, May 14, 2013

  Actual Average (KRUG) Record (KRUG)
Temperature  
Mean Temperature 58 °F -  
Max Temperature 68 °F 67 °F 89 °F (1977)
Min Temperature 48 °F 41 °F 20 °F (1983)
Degree Days  
Heating Degree Days 7    
Growing Degree Days 8 (Base 50)    
Moisture  
Dew Point 47 °F    
Average Humidity 63    
Maximum Humidity 100    
Minimum Humidity 33    
Precipitation  
Precipitation 0.40 in - - ()
Sea Level Pressure  
Sea Level Pressure 29.61 in    
Wind  
Wind Speed 18 mph (West)    
Max Wind Speed 45 mph    
Max Gust Speed 61 mph    
Visibility 10 miles    
Events Rain , Thunderstorm    
Averages and records for this station are not official NWS values.
T = Trace of Precipitation, MM = Missing Value Source: NWS Daily Summary

Daily Weather History Graph

Daily Weather History Graph

Search for Another Location

Airport:

Trip Planner

Search our weather history database for the weather conditions in past years. The results will help you decide how hot, cold, wet, or windy it might be!

Date:

Astronomy

May. 14, 2013 Rise Set
Actual Time 5:57 AM CDT 9:12 PM CDT
Civil Twilight 5:19 AM CDT 9:51 PM CDT
Nautical Twilight 4:30 AM CDT 10:41 PM CDT
Astronomical Twilight 3:26 AM CDT 11:45 PM CDT
Moon 9:39 AM CDT (5/14) 12:21 AM CDT (5/14)
Length of Visible Light 16h 31m
Length of Day
15h 15m
Waxing Crescent, 19% of the Moon is Illuminated
May 14
Waxing Crescent
May 17
First Quarter
May 24
Full
May 31
Last Quarter
Jun 8
New

Hourly Weather History & Observations

Time (CDT) Temp. Dew Point Humidity Pressure Visibility Wind Dir Wind Speed Gust Speed Precip Events Conditions
12:15 AM 59.0 °F 37.4 °F 45% 29.60 in 10.0 mi SSW 8.1 mph - N/A   Partly Cloudy
12:35 AM 59.0 °F 39.2 °F 48% 29.59 in 10.0 mi SSW 8.1 mph - N/A   Partly Cloudy
12:55 AM 59.0 °F 39.2 °F 48% 29.59 in 10.0 mi SW 6.9 mph - N/A   Scattered Clouds
1:15 AM 60.8 °F 41.0 °F 48% 29.59 in 10.0 mi SW 5.8 mph - N/A   Mostly Cloudy
1:35 AM 59.0 °F 41.0 °F 51% 29.58 in 10.0 mi SW 6.9 mph - N/A   Mostly Cloudy
1:55 AM 62.6 °F 41.0 °F 45% 29.57 in 10.0 mi SSW 12.7 mph - N/A   Mostly Cloudy
2:15 AM 64.4 °F 41.0 °F 42% 29.56 in 10.0 mi SW 16.1 mph 27.6 mph N/A   Partly Cloudy
2:35 AM 62.6 °F 42.8 °F 48% 29.52 in 10.0 mi WSW 10.4 mph - N/A   Partly Cloudy
2:55 AM 60.8 °F 42.8 °F 52% 29.54 in 10.0 mi WSW 6.9 mph - N/A   Scattered Clouds
3:15 AM 60.8 °F 42.8 °F 52% 29.55 in 10.0 mi WNW 8.1 mph - N/A   Mostly Cloudy
3:35 AM 68.0 °F 44.6 °F 43% 29.58 in 10.0 mi WSW 23.0 mph 29.9 mph N/A Rain Light Rain
3:55 AM 62.6 °F 51.8 °F 68% 29.61 in 8.0 mi WSW 25.3 mph 33.4 mph 0.02 in Rain , Thunderstorm Rain
4:15 AM 59.0 °F 57.2 °F 94% 29.62 in 4.0 mi West 24.2 mph 31.1 mph 0.06 in Rain Heavy Rain
4:35 AM 59.0 °F 59.0 °F 100% 29.64 in 5.0 mi West 31.1 mph 36.8 mph 0.14 in Rain Rain
4:55 AM 59.0 °F 59.0 °F 100% 29.67 in 4.0 mi West 29.9 mph 40.3 mph 0.28 in Rain Heavy Rain
5:15 AM 59.0 °F 59.0 °F 100% 29.65 in 5.0 mi West 23.0 mph 33.4 mph 0.05 in Rain Light Rain
5:35 AM 57.2 °F 57.2 °F 100% 29.62 in 10.0 mi WNW 11.5 mph - 0.08 in Rain Rain
5:55 AM 57.2 °F 57.2 °F 100% 29.58 in 10.0 mi SSW 5.8 mph - 0.10 in Rain Light Rain
6:15 AM 55.4 °F 55.4 °F 100% 29.53 in 10.0 mi South 9.2 mph - N/A   Partly Cloudy
6:35 AM 55.4 °F 55.4 °F 100% 29.53 in 10.0 mi South 8.1 mph - N/A   Clear
6:55 AM 55.4 °F 55.4 °F 100% 29.52 in 10.0 mi SSW 6.9 mph - N/A   Clear
7:15 AM 55.4 °F 55.4 °F 100% 29.52 in 10.0 mi SSW 8.1 mph - N/A   Clear
7:35 AM 57.2 °F 57.2 °F 100% 29.52 in 10.0 mi SW 9.2 mph - N/A   Clear
7:55 AM 59.0 °F 59.0 °F 100% 29.52 in 10.0 mi SW 10.4 mph - N/A   Clear
8:15 AM 59.0 °F 59.0 °F 100% 29.53 in 10.0 mi SW 16.1 mph 20.7 mph N/A   Clear
8:35 AM 60.8 °F 60.8 °F 100% 29.53 in 10.0 mi SW 19.6 mph 26.5 mph N/A   Clear
8:55 AM 59.0 °F 59.0 °F 100% 29.53 in 10.0 mi WSW 20.7 mph 26.5 mph N/A Thunderstorm Clear
9:15 AM 60.8 °F 60.8 °F 100% 29.53 in 10.0 mi SW 21.9 mph 26.5 mph N/A   Partly Cloudy
9:35 AM 59.0 °F 59.0 °F 100% 29.55 in 10.0 mi WSW 24.2 mph 33.4 mph N/A   Mostly Cloudy
9:55 AM 59.0 °F 59.0 °F 100% 29.54 in 10.0 mi West 20.7 mph 31.1 mph N/A   Mostly Cloudy
10:15 AM 62.6 °F 53.6 °F 72% 29.52 in 10.0 mi West 24.2 mph 31.1 mph N/A   Scattered Clouds
10:35 AM 62.6 °F 48.2 °F 59% 29.52 in 10.0 mi West 24.2 mph 35.7 mph N/A   Clear
10:55 AM 62.6 °F 48.2 °F 59% 29.52 in 10.0 mi WSW 29.9 mph 36.8 mph N/A   Clear
11:15 AM 62.6 °F 48.2 °F 59% 29.52 in 10.0 mi West 28.8 mph 41.4 mph N/A   Clear
11:35 AM 62.6 °F 48.2 °F 59% 29.52 in 10.0 mi West 31.1 mph 47.2 mph N/A   Clear
11:55 AM 64.4 °F 48.2 °F 56% 29.50 in 10.0 mi West 27.6 mph 39.1 mph N/A   Clear
12:15 PM 64.4 °F 46.4 °F 52% 29.49 in 10.0 mi WSW 36.8 mph 51.8 mph N/A   Clear
12:35 PM 64.4 °F 46.4 °F 52% 29.50 in 10.0 mi West 40.3 mph 56.4 mph N/A   Clear
12:55 PM 64.4 °F 46.4 °F 52% 29.50 in 10.0 mi West 39.1 mph 52.9 mph N/A   Clear
1:15 PM 64.4 °F 46.4 °F 52% 29.52 in 10.0 mi West 40.3 mph 50.6 mph N/A   Scattered Clouds
1:35 PM 64.4 °F 46.4 °F 52% 29.51 in 10.0 mi West 41.4 mph 58.7 mph N/A   Partly Cloudy
2:15 PM 62.6 °F 46.4 °F 55% 29.54 in 10.0 mi WNW 38.0 mph 56.4 mph N/A   Overcast
2:35 PM 62.6 °F 46.4 °F 55% 29.56 in 10.0 mi NW 42.6 mph 58.7 mph N/A   Overcast
2:55 PM 62.6 °F 46.4 °F 55% 29.58 in 10.0 mi NW 36.8 mph 47.2 mph N/A   Mostly Cloudy
3:15 PM 62.6 °F 46.4 °F 55% 29.59 in 10.0 mi NW 40.3 mph 50.6 mph N/A   Mostly Cloudy
3:35 PM 62.6 °F 44.6 °F 52% 29.61 in 10.0 mi NNW 44.9 mph 61.0 mph N/A   Mostly Cloudy
3:55 PM 64.4 °F 44.6 °F 49% 29.62 in 10.0 mi NNW 44.9 mph 58.7 mph N/A   Scattered Clouds
4:15 PM 64.4 °F 42.8 °F 45% 29.63 in 10.0 mi NW 43.7 mph 51.8 mph N/A   Scattered Clouds
4:35 PM 66.2 °F 42.8 °F 43% 29.65 in 10.0 mi NNW 38.0 mph 48.3 mph N/A   Partly Cloudy
4:55 PM 66.2 °F 41.0 °F 40% 29.67 in 10.0 mi NNW 36.8 mph 44.9 mph N/A   Partly Cloudy
5:15 PM 66.2 °F 41.0 °F 40% 29.68 in 10.0 mi NNW 27.6 mph 40.3 mph N/A   Partly Cloudy
5:35 PM 66.2 °F 41.0 °F 40% 29.68 in 10.0 mi NNW 27.6 mph 36.8 mph N/A   Clear
5:55 PM 66.2 °F 41.0 °F 40% 29.69 in 10.0 mi NNW 20.7 mph 35.7 mph N/A   Partly Cloudy
6:15 PM 66.2 °F 41.0 °F 40% 29.69 in 10.0 mi NW 21.9 mph 34.5 mph N/A   Partly Cloudy
6:35 PM 68.0 °F 39.2 °F 35% 29.69 in 10.0 mi NNW 27.6 mph 33.4 mph N/A   Mostly Cloudy
6:55 PM 68.0 °F 41.0 °F 37% 29.69 in 10.0 mi NNW 18.4 mph 26.5 mph N/A   Mostly Cloudy
7:15 PM 68.0 °F 39.2 °F 35% 29.70 in 10.0 mi NNW 20.7 mph 26.5 mph N/A   Mostly Cloudy
7:35 PM 68.0 °F 39.2 °F 35% 29.71 in 10.0 mi NNW 19.6 mph 25.3 mph N/A   Mostly Cloudy
7:55 PM 68.0 °F 37.4 °F 33% 29.71 in 10.0 mi NW 18.4 mph 25.3 mph N/A   Partly Cloudy
8:15 PM 66.2 °F 37.4 °F 35% 29.72 in 10.0 mi NW 15.0 mph - N/A   Clear
8:35 PM 64.4 °F 39.2 °F 40% 29.73 in 10.0 mi NW 9.2 mph - N/A   Clear
8:55 PM 60.8 °F 41.0 °F 48% 29.73 in 10.0 mi NW 6.9 mph - N/A   Clear
9:15 PM 59.0 °F 41.0 °F 51% 29.74 in 10.0 mi NNW 6.9 mph - N/A   Clear
9:35 PM 57.2 °F 39.2 °F 51% 29.75 in 10.0 mi WNW 10.4 mph - N/A   Clear
9:55 PM 57.2 °F 39.2 °F 51% 29.76 in 10.0 mi WNW 8.1 mph - N/A   Clear
10:15 PM 55.4 °F 39.2 °F 54% 29.77 in 10.0 mi WNW 9.2 mph - N/A   Clear
10:35 PM 55.4 °F 39.2 °F 54% 29.78 in 10.0 mi WNW 9.2 mph - N/A   Clear
11:15 PM 50.0 °F 39.2 °F 66% 29.79 in 10.0 mi West 8.1 mph - N/A   Clear
11:35 PM 48.2 °F 39.2 °F 71% 29.79 in 10.0 mi West 9.2 mph - N/A   Clear
11:55 PM 50.0 °F 39.2 °F 66% 29.79 in 10.0 mi WNW 9.2 mph - N/A   Clear